Simultaneous Nadir Overpasses (SNOs) Predictions

Prediction of SNOs between AQUA and METOP-C Satellite Orbit:

Table of predicted SNOs for the next 14.0 days since TLE Epoch: 10/11/2025
Index Date (AQUA) Time (AQUA) Lat,Lon (AQUA) SZA (AQUA ) Date (METOP-C) Time (METOP-C) Lat,Lon (METOP-C) SZA (METOP-C ) Distance(km) Time Diff (sec)
1 10/13/2025 14:59:35 -77.06, 139.56 94.88 10/13/2025 14:58:36 -77.05, 139.66 94.89 2.77 59
2 10/13/2025 15:48:53 77.06, -52.79 85.14 10/13/2025 15:49:16 77.07, -52.92 85.15 3.40 23
3 10/16/2025 02:57:48 77.07, 140.02 86.07 10/16/2025 02:56:53 77.04, 140.07 86.03 3.47 55
4 10/16/2025 03:47:06 -77.11, -52.46 93.89 10/16/2025 03:47:33 -77.10, -52.38 93.90 2.72 27
5 10/18/2025 14:55:59 -77.08, 140.54 93.02 10/18/2025 14:55:10 -77.07, 140.60 93.03 1.85 49
6 10/18/2025 15:45:17 77.09, -51.85 87.01 10/18/2025 15:45:49 77.13, -51.82 87.06 3.92 32
7 10/21/2025 02:54:09 77.06, 141.13 87.88 10/21/2025 02:53:26 77.09, 141.12 87.90 3.02 43
8 10/21/2025 03:43:26 -77.10, -51.33 92.09 10/21/2025 03:44:06 -77.10, -51.48 92.07 3.89 40
9 10/23/2025 14:52:18 -77.11, 141.46 91.20 10/23/2025 14:51:42 -77.11, 141.63 91.20 4.20 36



Historial Predications of SNOs between AQUA and METOP-C
